{"data":{"norad_id":48576,"intl_designator":"2021-041Z","name":"STARLINK-2228","alt_names":[],"object_type":"PAYLOAD","status":"ACTIVE","operator":null,"country":"US","launch_date":"2021-05-15","launch_site_code":"AFETR","launch_vehicle":null,"mission":null,"orbit_class":"UNKNOWN","rcs_meters":null,"size_class":null,"mass_kg":null,"dimensions":null,"purposes":["comms"],"wikipedia_slug":null,"has_3d_model":false,"image_url":null,"decayed_at":null,"tle_current":{"epoch":"2026-09-19T16:59:10.382784Z","epoch_age_seconds":105775,"freshness":"FRESH","line1":"1 48576U 21041Z   26262.70775906 -.00000241  00000+0  39969-5 0  9995","line2":"2 48576  53.1588 278.1387 0001573  71.2192 288.8980 15.31696779295379","mean_motion":15.31696779,"eccentricity":0.0001573,"inclination_deg":53.1588,"raan_deg":278.1387,"arg_perigee_deg":71.2192,"mean_anomaly_deg":288.898,"bstar":3.9969e-6,"rev_number":29537,"period_min":94.013385661105,"perigee_km":469.67226701418,"apogee_km":471.82692673755,"semimajor_km":6848.8865968759,"source":"CELESTRAK","updated_at":"2026-09-20T09:00:39.135763Z"}}}